Meteo Giornale » Osservazioni meteo Italia » Roma Fiumicino

ore: 15:50 - Osservazioni Meteo Roma Fiumicino
Lat. 41° 48' N Lon. 12° 14' E Alt. 2 metri s.l.m.

nuvoloso Europe/Rome

13 °C

Nuvoloso

Temp. 24 Ore

5 °C

13 °C

Ovest

9.3 Km/h

Dew point 7 °C

Umidità 66 %

Visibilità  10 Km

Il sole sorge alle ore 07:00

Il sole tramonta alle ore 17:49

Data e Ora Cielo e Fenomeni T °C DP °C Um. % Pres. hPa Vis. km Vento km/h
Oggi h: 15:50 nuvoloso Nuvoloso 13 7 66 1025 10 O 9.3
Oggi h: 15:20 nuvoloso Nuvoloso 13 7 66 1025 10 O 9.3
Oggi h: 14:50 nuvoloso Nuvoloso 13 6 62 1025 10 O 9.3
Oggi h: 14:20 molto_nuvoloso Molto Nuvoloso 13 6 62 1025 10 O/NO 9.3
Oggi h: 13:50 molto_nuvoloso Molto Nuvoloso 13 6 62 1026 10 O 11.1
Oggi h: 13:20 nuvoloso Nuvoloso 13 6 62 1026 10 O 9.3
Oggi h: 12:50 nuvoloso Nuvoloso 13 6 62 1026 10 N 5.5
Oggi h: 12:20 molto_nuvoloso Molto Nuvoloso 13 6 62 1027 10 O/NO 9.3
Oggi h: 11:50 molto_nuvoloso Molto Nuvoloso 13 7 66 1027 9 N 5.5
Oggi h: 11:20 nuvoloso Nuvoloso 13 7 66 1027 9 N 3.7
Oggi h: 10:50 poco_nuvoloso Poco Nuvoloso 12 8 76 1027 9 N 3.7
Oggi h: 10:20 nuvoloso Nuvoloso 11 8 81 1027 8 N 5.5
Oggi h: 09:50 nuvoloso Nuvoloso 10 7 81 1027 8 N 5.5
Oggi h: 09:20 nuvoloso Nuvoloso 9 7 87 1027 7 N 5.5
Oggi h: 08:50 nuvoloso Nuvoloso 8 7 93 1027 6 N 3.7
Oggi h: 08:20 nuvoloso Nuvoloso 7 6 93 1027 6 NE 7.4
Oggi h: 07:50 foschia Foschia 6 5 93 1027 5 N 3.7
Oggi h: 07:20 foschia Foschia 6 5 93 1026 5 N 3.7
Oggi h: 06:50 foschia Foschia 5 4 93 1026 5 N 5.5
Oggi h: 06:20 foschia Foschia 6 5 93 1026 5 E/NE 9.3
Oggi h: 05:50 foschia Foschia 7 6 93 1027 5 N/NE 7.4
Oggi h: 05:20 foschia Foschia 6 6 100 1027 5 N 5.5
Oggi h: 04:50 foschia Foschia 6 5 93 1027 5 NE 7.4
Oggi h: 04:20 foschia Foschia 6 5 93 1027 5 N 5.5
Oggi h: 03:50 foschia Foschia 5 5 100 1027 5 N 5.5
Oggi h: 03:20 foschia Foschia 5 4 93 1027 5 N 5.5
Oggi h: 02:50 nuvoloso Nuvoloso 5 4 93 1027 6 N 5.5
Oggi h: 02:20 nuvoloso Nuvoloso 5 4 93 1027 6 N 3.7
Oggi h: 01:50 nuvoloso Nuvoloso 5 4 93 1027 6 N 3.7
Oggi h: 01:20 nuvoloso Nuvoloso 7 6 93 1027 6 N 5.5
Oggi h: 00:50 molto_nuvoloso Molto Nuvoloso 7 6 93 1027 6 N 3.7
Oggi h: 00:20 molto_nuvoloso Molto Nuvoloso 6 6 100 1028 6 N 5.5
Ieri h: 23:50 molto_nuvoloso Molto Nuvoloso 7 6 93 1028 6 E 7.4
Ieri h: 23:20 nuvoloso Nuvoloso 7 6 93 1028 6 E/SE 7.4
Ieri h: 22:50 nuvoloso Nuvoloso 7 6 93 1028 6 E/SE 7.4
Ieri h: 22:20 nuvoloso Nuvoloso 8 7 93 1028 7 N 5.5
Ieri h: 21:50 sereno Sereno 7 6 93 1028 8 N 5.5
Ieri h: 21:20 sereno Sereno 8 7 93 1027 8 N 3.7
Ieri h: 20:50 sereno Sereno 7 6 93 1027 10 N 1.8
Ieri h: 20:20 sereno Sereno 10 8 87 1027 10 N 5.5
Ieri h: 19:50 sereno Sereno 10 8 87 1027 10 N 5.5
Ieri h: 19:20 sereno Sereno 10 8 87 1027 10 N 5.5
Ieri h: 18:50 sereno Sereno 10 8 87 1027 10 N 5.5
Ieri h: 18:20 sereno Sereno 11 8 81 1027 10 O 7.4
Ieri h: 17:50 sereno Sereno 12 9 81 1027 10 O 9.3
Ieri h: 17:20 sereno Sereno 13 9 76 1027 10 O 11.1
Ieri h: 16:50 sereno Sereno 13 9 76 1027 10 O 14.8
Ieri h: 16:20 sereno Sereno 13 9 76 1027 10 O 14.8
Ieri h: 15:50 sereno Sereno 13 9 76 1027 10 O 14.8